Regional Weather Roundup
Issued by NWS Mt. Holly, NJ

Home | Current Version | Previous Version | Text Only | Print | Product List | Glossary On
Versions: 1 2 3 4 5 6 7 8 9 10 11 12 13 14 15 16 17 18 19 20 21 22 23 24 25 26 27 28 29 30 31 32 33 34 35 36 37 38 39 40 41 42 43 44 45 46 47 48 49 50
946
ASUS41 KPHI 302112
RWRPHI

REGIONAL WEATHER ROUNDUP
NATIONAL WEATHER SERVICE MOUNT HOLLY NJ
500 PM EDT SAT APR 30 2016

NOTE:  "FAIR" INDICATES FEW OR NO CLOUDS BELOW 12,000 FEET WITH NO
SIGNIFICANT WEATHER AND/OR OBSTRUCTIONS TO VISIBILITY.

 * = STATION DOES NOT REPORT PRECIPITATION (E.G. RAIN, SNOW, ETC.)
        OR FOG.

NJZ015>026-302200-
SOUTHERN NEW JERSEY

CITY           SKY/WX    TMP DP  RH WIND       PRES   REMARKS
POMONA         SUNNY     55  33  43 E10       30.22S
WILDWOOD*      SUNNY    N/A N/A N/A E13       30.23R
MILLVILLE      CLOUDY    58  43  57 SE8       30.20R
WRIGHTSTOWN    CLOUDY    58  40  52 E8        30.18S
MOUNT HOLLY    CLOUDY    58  43  57 SE7       30.20R
TRENTON        CLOUDY    58  42  55 S5        30.19R

$$
NJZ001>014-302200-
NORTHERN NEW JERSEY

CITY           SKY/WX    TMP DP  RH WIND       PRES   REMARKS
SUSSEX         CLOUDY    59  40  49 SW3       30.19R
ANDOVER*         N/A     57  40  52 CALM      30.19R
MORRISTOWN     CLOUDY    61  39  44 S7        30.20R
NEWARK         PTSUNNY   61  28  28 S14       30.21R
TETERBORO      SUNNY     61  30  31 S9        30.19R
CALDWELL       PTSUNNY   61  35  37 S8        30.20R
SOMERVILLE     CLOUDY    60  41  49 CALM      30.18R
ALLAIRE*       SUNNY     55  33  43 E9        30.24R
TOMS RIVER*    SUNNY     57  32  38 E8        30.23R

$$
PAZ043-044-047-054-055-060>062-066>071-302200-
EASTERN PENNSYLVANIA

CITY           SKY/WX    TMP DP  RH WIND       PRES   REMARKS
PHILADELPHIA   CLOUDY    61  41  47 SE3       30.20S
NORTH PHILA    CLOUDY    60  42  51 SE3       30.21R
BLUE BELL*     CLOUDY    55  43  62 CALM      30.19R
DOYLESTOWN     CLOUDY    55  40  56 S5        30.19S
QUAKERTOWN*    CLOUDY    57  41  54 CALM      30.20S
PERKASIE*      CLOUDY    55  41  58 CALM      30.20S
POTTSTOWN      CLOUDY    57  41  55 CALM      30.21R
LANCASTER      CLOUDY    56  45  66 E3        30.19R
COATESVILLE    CLOUDY    55  45  67 VRB5      30.21R
READING        CLOUDY    58  41  53 CALM      30.19R
ALLENTOWN      CLOUDY    57  42  57 SW3       30.19S
MOUNT POCONO   CLOUDY    50  38  63 VRB5      30.17S
HAZLETON       CLOUDY    52  39  62 SE8       30.20S
LEHIGHTON      CLOUDY    55  39  54 CALM      30.20S
WILKES BARRE   CLOUDY    56  40  55 CALM      30.17S

$$
DEZALL-MDZ008-012-015-019-020-302200-
DELAWARE AND EASTERN MARYLAND

CITY           SKY/WX    TMP DP  RH WIND       PRES   REMARKS
WILMINGTON     PTSUNNY   59  44  57 S8        30.21R
DOVER          SUNNY     58  47  67 E10       30.21R
GEORGETOWN     MOSUNNY   56  43  61 E8        30.22R
EASTON         CLOUDY   N/A N/A N/A SE5       30.23S
PATUXENT       CLOUDY    56  47  71 SE3       30.20S
OCEAN CITY     CLOUDY    53  44  71 E10       30.23R
WALLOPS ISLAND CLOUDY    55  47  74 E15       30.21S
CAMBRIDGE      CLOUDY    57  45  62 E5        30.19S
SALISBURY      CLOUDY    58  46  64 NE10      30.19S

$$
PAZ001-021-NYZ056-072-MDZ011-DCZ001-302200-
OTHER NEARBY LOCATIONS

CITY           SKY/WX    TMP DP  RH WIND       PRES   REMARKS
HARRISBURG     CLOUDY    59  44  57 SE6       30.17S
STATE COLLEGE  CLOUDY    54  45  71 E7        30.15F
WILLIAMSPORT   CLOUDY    56  41  57 E5        30.17S
BINGHAMTON     CLOUDY    52  39  61 SE6       30.17S
NEW YORK CITY  SUNNY     61  32  33 VRB6      30.23R
BALTIMORE      CLOUDY    58  45  62 SW5       30.18F
WASHINGTON DC  CLOUDY    57  49  74 SE7       30.20S

$$




USA.gov is the U.S. government's official web portal to all federal, state and local government web resources and services.